CW6261 Weather Reports


Display with metric or nautical units.
time (UTC)temp
F
wind
direction
speed
MPH
gust
MPH
rain 1hr
in
rain 24hr
in
rain mn
in
humidity
%
barometer
mb
20260905020203 84 154 0.0 8.0 0.00 0.00 0.00 66 101.1
20260905015202 84 148 0.0 7.0 0.00 0.00 0.00 66 101.1
20260905014702 84 154 0.0 4.0 0.00 0.00 0.00 65 101.1
20260905013702 84 124 1.0 5.0 0.00 0.00 0.00 65 101.1
20260905013202 84 159 1.0 4.0 0.00 0.00 0.00 65 101.1
20260905012702 85 191 2.0 4.0 0.00 0.00 0.00 65 101.1
20260905012202 84 210 1.0 6.0 0.00 0.00 0.00 65 101.1
20260905011702 85 186 0.0 2.0 0.00 0.00 0.00 65 101.1
20260905010702 85 201 2.0 4.0 0.00 0.00 0.00 65 101.1
20260905010202 85 290 0.0 3.0 0.00 0.00 0.00 66 101.1
20260905005702 85 127 1.0 3.0 0.00 0.00 0.00 66 101.1
20260905005202 85 116 0.0 1.0 0.00 0.00 0.00 65 101.1
20260905004702 86 242 0.0 2.0 0.00 0.00 0.00 64 101.1
20260905004202 86 107 1.0 4.0 0.00 0.00 0.00 64 101.1
20260905003702 86 135 0.0 2.0 0.00 0.00 0.00 63 101.1
20260905002702 86 154 0.0 5.0 0.00 0.00 0.00 62 101.1
20260905002202 86 179 1.0 4.0 0.00 0.00 0.00 62 101.1
20260905001702 86 147 1.0 5.0 0.00 0.00 0.00 62 101.1
20260905001202 86 160 4.0 4.0 0.00 0.00 0.00 62 101.1
20260905000702 87 114 1.0 2.0 0.00 0.00 0.00 62 101.1
20260904235701 87 148 1.0 4.0 0.00 0.00 0.00 61 101.0
20260904235202 87 106 0.0 3.0 0.00 0.00 0.00 61 101.0
20260904234702 87 8 1.0 4.0 0.00 0.00 0.00 60 101.0
20260904234202 87 112 1.0 9.0 0.00 0.00 0.00 60 101.0
20260904233703 88 118 2.0 11.0 0.00 0.00 0.00 59 101.0
20260904233202 88 95 2.0 4.0 0.00 0.00 0.00 58 101.0
20260904232702 88 166 1.0 5.0 0.00 0.00 0.00 58 101.0
20260904232202 88 200 0.0 5.0 0.00 0.00 0.00 58 101.0
20260904231702 88 108 2.0 5.0 0.00 0.00 0.00 58 101.1
20260904231202 88 216 2.0 8.0 0.00 0.00 0.00 58 101.1
20260904230702 88 129 2.0 4.0 0.00 0.00 0.00 57 101.1
20260904230202 89 184 1.0 7.0 0.00 0.00 0.00 56 101.0
20260904225702 91 152 3.0 4.0 0.00 0.00 0.00 49 101.0
20260904225202 92 205 8.0 11.0 0.00 0.00 0.00 42 101.0
20260904224202 93 179 1.0 4.0 0.00 0.00 0.00 42 101.0
20260904223702 92 238 4.0 6.0 0.00 0.00 0.00 42 101.0
20260904223202 91 174 2.0 5.0 0.00 0.00 0.00 43 101.1
20260904222702 92 166 2.0 10.0 0.00 0.00 0.00 42 101.1
20260904221702 91 188 5.0 5.0 0.00 0.00 0.00 46 101.1
20260904221202 92 217 1.0 4.0 0.00 0.00 0.00 46 101.1
20260904220702 92 198 4.0 10.0 0.00 0.00 0.00 43 101.1
20260904220202 91 176 3.0 4.0 0.00 0.00 0.00 42 101.0
20260904215702 92 220 1.0 6.0 0.00 0.00 0.00 44 101.0
20260904215202 92 185 1.0 8.0 0.00 0.00 0.00 40 101.0
20260904214702 91 211 1.0 2.0 0.00 0.00 0.00 38 101.1
20260904214202 93 183 2.0 8.0 0.00 0.00 0.00 37 101.1
20260904213202 92 252 2.0 6.0 0.00 0.00 0.00 39 101.1
20260904212703 92 190 1.0 8.0 0.00 0.00 0.00 38 101.1
20260904212202 92 250 3.0 7.0 0.00 0.00 0.00 40 101.1
20260904211701 92 198 4.0 6.0 0.00 0.00 0.00 39 101.1
20260904211202 92 181 5.0 12.0 0.00 0.00 0.00 38 101.1
20260904210702 91 141 0.0 4.0 0.00 0.00 0.00 38 101.1
20260904210202 91 188 3.0 6.0 0.00 0.00 0.00 37 101.1
20260904205702 91 178 5.0 7.0 0.00 0.00 0.00 38 101.1
20260904204702 90 236 2.0 5.0 0.00 0.00 0.00 43 101.1
20260904204202 90 188 5.0 8.0 0.00 0.00 0.00 41 101.1
20260904203702 90 130 1.0 8.0 0.00 0.00 0.00 42 101.1
20260904203202 88 205 3.0 6.0 0.00 0.00 0.00 44 101.2
20260904202702 90 185 2.0 9.0 0.00 0.00 0.00 46 101.2
20260904202201 90 163 2.0 4.0 0.00 0.00 0.00 47 101.2
20260904201702 91 253 4.0 8.0 0.00 0.00 0.00 47 101.2
20260904201202 91 203 6.0 8.0 0.00 0.00 0.00 46 101.2
20260904195702 89 206 8.0 9.0 0.00 0.00 0.00 48 101.2
20260904195202 89 227 7.0 10.0 0.00 0.00 0.00 50 101.2
20260904194702 88 198 6.0 7.0 0.00 0.00 0.00 55 101.2
20260904193702 88 206 4.0 9.0 0.00 0.00 0.00 56 101.2
20260904193201 89 189 4.0 8.0 0.00 0.00 0.00 57 101.3
20260904192702 88 210 1.0 8.0 0.00 0.00 0.00 58 101.3
20260904192202 87 256 1.0 7.0 0.00 0.00 0.00 59 101.3
20260904191702 87 214 7.0 9.0 0.00 0.00 0.00 60 101.3
20260904191202 87 199 4.0 12.0 0.00 0.00 0.00 60 101.3
20260904190702 86 224 3.0 5.0 0.00 0.00 0.00 62 101.3
20260904190202 85 239 2.0 7.0 0.00 0.00 0.00 63 101.3
20260904185702 85 210 5.0 9.0 0.00 0.00 0.00 62 101.3
20260904185202 86 194 5.0 8.0 0.00 0.00 0.00 63 101.3
20260904184702 86 168 1.0 8.0 0.00 0.00 0.00 63 101.3
20260904184202 85 156 3.0 4.0 0.00 0.00 0.00 64 101.3
20260904182702 86 223 1.0 8.0 0.00 0.00 0.00 64 101.3
20260904182202 86 197 6.0 6.0 0.00 0.00 0.00 65 101.3
20260904181702 85 117 1.0 6.0 0.00 0.00 0.00 65 101.3
20260904181204 85 230 1.0 3.0 0.00 0.00 0.00 67 101.3
20260904180701 85 185 4.0 6.0 0.00 0.00 0.00 67 101.3
20260904180202 84 300 0.0 3.0 0.00 0.00 0.00 67 101.3
20260904175702 85 217 2.0 6.0 0.00 0.00 0.00 67 101.3
20260904174702 85 194 5.0 8.0 0.00 0.00 0.00 67 101.3
20260904174202 85 215 3.0 6.0 0.00 0.00 0.00 68 101.3
20260904173702 85 187 2.0 6.0 0.00 0.00 0.00 67 101.3
20260904173202 86 205 4.0 7.0 0.00 0.00 0.00 66 101.4
20260904172702 85 233 3.0 6.0 0.00 0.00 0.00 67 101.4
20260904172202 85 223 2.0 4.0 0.00 0.00 0.00 67 101.4
20260904171202 85 236 3.0 6.0 0.00 0.00 0.00 67 101.4
20260904170203 86 176 1.0 5.0 0.00 0.00 0.00 66 101.4
20260904165702 86 138 2.0 6.0 0.00 0.00 0.00 66 101.4
20260904165203 86 225 1.0 5.0 0.00 0.00 0.00 65 101.4
20260904164202 85 242 5.0 7.0 0.00 0.00 0.00 68 101.4
20260904163702 83 252 4.0 6.0 0.00 0.00 0.00 71 101.4
20260904163202 83 233 3.0 6.0 0.00 0.00 0.00 71 101.4
20260904162702 84 146 0.0 5.0 0.00 0.00 0.00 71 101.4
20260904161702 84 235 3.0 5.0 0.00 0.00 0.00 72 101.4
20260904161202 84 221 4.0 8.0 0.00 0.00 0.00 71 101.4
20260904160702 85 241 4.0 6.0 0.00 0.00 0.00 70 101.4
20260904155702 83 201 4.0 6.0 0.00 0.00 0.00 72 101.3
20260904154702 83 265 3.0 5.0 0.00 0.00 0.00 74 101.3
20260904154202 84 259 2.0 4.0 0.00 0.00 0.00 74 101.3
20260904153701 83 291 2.0 5.0 0.00 0.00 0.00 74 101.3
20260904153202 82 257 4.0 4.0 0.00 0.00 0.00 76 101.3
20260904152702 81 179 2.0 6.0 0.00 0.00 0.00 76 101.3
20260904152202 82 215 4.0 6.0 0.00 0.00 0.00 77 101.3
20260904151702 82 238 4.0 5.0 0.00 0.00 0.00 77 101.3
20260904151202 82 221 2.0 6.0 0.00 0.00 0.00 77 101.3
20260904150702 81 244 3.0 9.0 0.00 0.00 0.00 79 101.3
20260904150202 81 309 2.0 6.0 0.00 0.00 0.00 80 101.3
20260904145702 81 219 4.0 8.0 0.00 0.00 0.00 80 101.3
20260904145201 81 183 1.0 6.0 0.00 0.00 0.00 81 101.3
20260904144202 80 202 3.0 6.0 0.00 0.00 0.00 83 101.3
20260904143701 80 239 4.0 6.0 0.00 0.00 0.00 84 101.3
20260904143202 80 244 2.0 6.0 0.00 0.00 0.00 84 101.3
20260904142702 80 248 7.0 7.0 0.00 0.00 0.00 84 101.3
20260904142202 80 247 3.0 4.0 0.00 0.00 0.00 84 101.3
20260904141202 79 259 3.0 5.0 0.00 0.00 0.00 86 101.3
20260904140702 79 249 3.0 4.0 0.00 0.00 0.00 86 101.3
20260904140202 79 292 2.0 5.0 0.00 0.00 0.00 86 101.3
20260904135202 79 250 4.0 5.0 0.00 0.00 0.00 87 101.3
20260904134202 79 249 2.0 8.0 0.00 0.00 0.00 89 101.3
20260904133702 79 218 2.0 6.0 0.00 0.00 0.00 89 101.3
20260904133202 79 242 5.0 5.0 0.00 0.00 0.00 90 101.3
20260904132701 79 248 3.0 5.0 0.00 0.00 0.00 90 101.3
20260904132201 78 271 3.0 5.0 0.00 0.00 0.00 91 101.3
20260904131702 78 212 2.0 4.0 0.00 0.00 0.00 91 101.3
20260904131202 78 242 3.0 4.0 0.00 0.00 0.00 90 101.3
20260904130702 78 255 2.0 3.0 0.00 0.00 0.00 91 101.3
20260904130202 78 201 1.0 4.0 0.00 0.00 0.00 91 101.3
20260904125202 78 248 1.0 4.0 0.00 0.00 0.00 91 101.3
20260904124702 78 256 1.0 4.0 0.00 0.00 0.00 91 101.3
20260904124202 78 194 2.0 6.0 0.00 0.00 0.00 91 101.3
20260904123702 78 240 2.0 3.0 0.00 0.00 0.00 91 101.3
20260904123202 78 202 2.0 3.0 0.00 0.00 0.00 90 101.2
20260904122701 78 152 2.0 3.0 0.00 0.00 0.00 90 101.2
20260904121202 78 221 1.0 2.0 0.00 0.00 0.00 89 101.2
20260904120202 78 232 1.0 4.0 0.00 0.00 0.00 89 101.2
20260904115702 78 172 1.0 6.0 0.00 0.00 0.00 89 101.2
20260904115202 78 202 2.0 4.0 0.00 0.00 0.00 89 101.2
20260904114702 78 197 1.0 3.0 0.00 0.00 0.00 89 101.2
20260904114202 78 183 7.0 7.0 0.00 0.00 0.00 88 101.2
20260904113703 79 164 3.0 6.0 0.00 0.00 0.00 88 101.2
20260904113202 79 113 1.0 4.0 0.00 0.00 0.00 88 101.2
20260904112702 79 177 1.0 5.0 0.00 0.00 0.00 87 101.2
20260904112202 79 198 1.0 4.0 0.00 0.00 0.00 87 101.2
20260904110203 79 180 4.0 5.0 0.00 0.00 0.00 86 101.2
20260904105702 79 213 3.0 5.0 0.00 0.00 0.00 86 101.2
20260904104702 79 168 1.0 5.0 0.00 0.00 0.00 86 101.2
20260904104202 79 319 1.0 4.0 0.00 0.00 0.00 86 101.2
20260904103702 79 162 1.0 4.0 0.00 0.00 0.00 86 101.2
20260904103202 79 208 3.0 6.0 0.00 0.00 0.00 86 101.2
20260904102202 79 162 2.0 5.0 0.00 0.00 0.00 86 101.2
20260904101702 79 185 1.0 4.0 0.00 0.00 0.00 85 101.2
20260904101201 79 212 2.0 8.0 0.00 0.00 0.00 85 101.2
20260904100702 79 232 4.0 11.0 0.00 0.00 0.00 84 101.2
20260904095202 79 201 5.0 9.0 0.00 0.00 0.00 84 101.1
20260904094702 79 269 4.0 5.0 0.00 0.00 0.00 84 101.1
20260904094202 79 179 3.0 9.0 0.00 0.00 0.00 84 101.1
20260904093702 79 242 3.0 5.0 0.00 0.00 0.00 84 101.1
20260904093202 79 213 4.0 6.0 0.00 0.00 0.00 84 101.1
20260904092702 79 200 3.0 7.0 0.00 0.00 0.00 84 101.1
20260904092201 79 240 1.0 9.0 0.00 0.00 0.00 84 101.1
20260904091202 79 179 5.0 8.0 0.00 0.00 0.00 84 101.1
20260904090702 80 172 4.0 6.0 0.00 0.00 0.00 84 101.1
20260904090201 80 199 2.0 6.0 0.00 0.00 0.00 83 101.1
20260904085702 80 185 2.0 7.0 0.00 0.00 0.00 83 101.1
20260904085202 80 244 2.0 5.0 0.00 0.00 0.00 83 101.1
20260904084702 80 180 3.0 11.0 0.00 0.00 0.00 83 101.1
20260904084202 80 243 3.0 8.0 0.00 0.00 0.00 83 101.1
20260904083701 80 175 2.0 14.0 0.00 0.00 0.00 83 101.1
20260904083202 80 216 4.0 9.0 0.00 0.00 0.00 83 101.1
20260904082702 80 198 6.0 7.0 0.00 0.00 0.00 82 101.1
20260904082202 80 169 3.0 7.0 0.00 0.00 0.00 82 101.1
20260904081701 80 242 3.0 6.0 0.00 0.00 0.00 82 101.1
20260904081202 80 224 5.0 7.0 0.00 0.00 0.00 82 101.1
20260904080702 80 241 4.0 6.0 0.00 0.00 0.00 82 101.1
20260904075702 80 246 5.0 5.0 0.00 0.00 0.00 82 101.1
20260904075202 80 219 2.0 10.0 0.00 0.00 0.00 82 101.1
20260904074202 80 222 3.0 6.0 0.00 0.00 0.00 81 101.1
20260904072702 80 200 4.0 10.0 0.00 0.00 0.00 81 101.2
20260904072201 80 218 4.0 7.0 0.00 0.00 0.00 81 101.2
20260904071701 80 182 6.0 7.0 0.00 0.00 0.00 81 101.2
20260904070702 80 177 1.0 8.0 0.00 0.00 0.00 81 101.2
20260904070203 80 215 2.0 5.0 0.00 0.00 0.00 80 101.1
20260904065702 80 185 6.0 8.0 0.00 0.00 0.00 80 101.1
20260904065201 80 239 4.0 6.0 0.00 0.00 0.00 80 101.1
20260904064701 80 223 1.0 7.0 0.00 0.00 0.00 80 101.1
20260904064201 80 226 2.0 9.0 0.00 0.00 0.00 80 101.1
20260904063202 80 192 5.0 9.0 0.00 0.00 0.00 80 101.1
20260904062202 80 222 6.0 7.0 0.00 0.00 0.00 80 101.2
20260904061702 80 204 4.0 8.0 0.00 0.00 0.00 80 101.2
20260904061201 80 211 2.0 7.0 0.00 0.00 0.00 80 101.2
20260904060701 80 184 4.0 8.0 0.00 0.00 0.00 80 101.2
20260904060201 80 180 6.0 8.0 0.00 0.00 0.00 80 101.1
20260904055702 80 210 4.0 7.0 0.00 0.00 0.00 80 101.1
20260904055202 80 217 4.0 8.0 0.00 0.00 0.00 80 101.1
20260904054702 80 169 5.0 8.0 0.00 0.00 0.00 80 101.1
20260904054202 80 222 6.0 10.0 0.00 0.00 0.00 80 101.1
20260904053702 80 180 3.0 6.0 0.00 0.00 0.00 80 101.1
20260904053202 80 177 1.0 7.0 0.00 0.00 0.00 80 101.1
20260904052702 80 208 3.0 8.0 0.00 0.00 0.00 80 101.2
20260904052202 80 202 7.0 9.0 0.00 0.00 0.00 80 101.2
20260904051701 80 185 5.0 8.0 0.00 0.00 0.00 80 101.2
20260904051202 80 188 4.0 7.0 0.00 0.00 0.00 80 101.2
20260904050702 80 175 3.0 6.0 0.00 0.00 0.00 80 101.2
20260904050201 80 171 3.0 11.0 0.00 0.00 0.00 80 101.1
20260904045702 80 189 4.0 10.0 0.00 0.00 0.00 80 101.1
20260904045202 80 149 0.0 8.0 0.00 0.00 0.00 79 101.1
20260904044702 80 208 2.0 7.0 0.00 0.00 0.00 79 101.1
20260904044201 80 191 3.0 9.0 0.00 0.00 0.00 79 101.1
20260904043702 80 200 2.0 5.0 0.00 0.00 0.00 79 101.1
20260904043202 80 168 5.0 10.0 0.00 0.00 0.00 79 101.1
20260904042702 80 200 7.0 9.0 0.00 0.00 0.00 79 101.2
20260904042202 80 177 3.0 12.0 0.00 0.00 0.00 78 101.2
20260904041703 80 198 1.0 5.0 0.00 0.00 0.00 78 101.2
20260904041201 80 184 4.0 8.0 0.00 0.00 0.00 78 101.2
20260904040202 80 158 3.0 8.0 0.00 0.00 0.00 78 101.1
20260904035702 80 146 1.0 5.0 0.00 0.00 0.00 78 101.1
20260904035201 80 173 1.0 8.0 0.00 0.00 0.00 77 101.1
20260904034702 80 175 5.0 8.0 0.00 0.00 0.00 77 101.1
20260904034203 80 162 1.0 7.0 0.00 0.00 0.00 77 101.1
20260904033702 80 123 0.0 9.0 0.00 0.00 0.00 77 101.1
20260904033202 80 129 2.0 6.0 0.00 0.00 0.00 77 101.1
20260904032703 81 175 4.0 7.0 0.00 0.00 0.00 76 101.1
20260904032202 81 196 3.0 7.0 0.00 0.00 0.00 76 101.1
20260904031702 81 238 2.0 5.0 0.00 0.00 0.00 75 101.1
20260904031202 81 181 2.0 7.0 0.00 0.00 0.00 74 101.1
20260904030202 81 163 0.0 6.0 0.00 0.00 0.00 73 101.2
20260904025702 81 164 2.0 6.0 0.00 0.00 0.00 73 101.2
20260904025202 81 175 4.0 10.0 0.00 0.00 0.00 72 101.2
20260904024202 82 177 2.0 13.0 0.00 0.00 0.00 71 101.1
20260904023702 82 141 0.0 9.0 0.00 0.00 0.00 71 101.1
20260904023202 82 193 2.0 10.0 0.00 0.00 0.00 71 101.1
20260904022702 82 180 7.0 14.0 0.00 0.00 0.00 70 101.1
20260904022202 82 157 4.0 10.0 0.00 0.00 0.00 69 101.1
20260904021202 82 195 4.0 12.0 0.00 0.00 0.00 69 101.1
20260904020702 82 188 4.0 6.0 0.00 0.00 0.00 68 101.1